When you browse on this site, cookies collect data to enhance your experience and personalize the content and advertising you see.
Visit our Privacy Policy to learn more. By continuing to use the site, you agree to this use of cookies and data.
  • In Hungary
  • List of Countries
  • For 7 days
  • Water Temperature
  • Satellite Maps
  • Weather Map
  • News
  • Weather Widgets
  • user-avatar
    Login

    Hourly Weather Bangalore

    Today, 18 July, Thursday

    Time Temperature Precipitation Wind Pressure Humidity
    00:00 +25°C° 1 mm 5 mps 680 mmHg 75%
    01:00 +25°C° 1 mm 5 mps 680 mmHg 77%
    02:00 +23°C° 1 mm 5 mps 679 mmHg 79%
    03:00 +23°C° 0 mm 5 mps 679 mmHg 81%
    04:00 +23°C° 0 mm 5 mps 679 mmHg 82%
    05:00 +24°C° 0 mm 3 mps 679 mmHg 84%
    06:00 +24°C° 0 mm 3 mps 680 mmHg 82%
    07:00 +25°C° 0 mm 4 mps 680 mmHg 79%
    08:00 +25°C° 0 mm 5 mps 680 mmHg 77%
    09:00 +27°C° 0.1 mm 5 mps 680 mmHg 71%
    10:00 +28°C° 0.1 mm 5 mps 681 mmHg 65%
    11:00 +30°C° 0.1 mm 5 mps 681 mmHg 60%
    12:00 +30°C° 0.2 mm 5 mps 680 mmHg 57%
    13:00 +32°C° 0.2 mm 5 mps 680 mmHg 55%
    14:00 +32°C° 0.2 mm 5 mps 679 mmHg 53%
    15:00 +32°C° 0.6 mm 5 mps 679 mmHg 55%
    16:00 +30°C° 0.6 mm 5 mps 678 mmHg 56%
    17:00 +30°C° 0.6 mm 4 mps 678 mmHg 58%
    18:00 +29°C° 2.2 mm 4 mps 678 mmHg 63%
    19:00 +28°C° 2.2 mm 4 mps 679 mmHg 68%
    20:00 +27°C° 2.2 mm 4 mps 679 mmHg 72%
    21:00 +26°C° 1.6 mm 5 mps 679 mmHg 75%
    22:00 +26°C° 1.6 mm 5 mps 679 mmHg 78%
    23:00 +25°C° 1.6 mm 5 mps 680 mmHg 81%

    Tomorrow, 19 July, Friday

    Time Temperature Precipitation Wind Pressure Humidity
    00:00 +23°C° 2 mm 5 mps 679 mmHg 84%
    01:00 +23°C° 2 mm 6 mps 678 mmHg 87%
    02:00 +22°C° 2 mm 6 mps 678 mmHg 90%
    03:00 +22°C° 1.4 mm 6 mps 678 mmHg 90%
    04:00 +22°C° 1.4 mm 5 mps 678 mmHg 90%
    05:00 +22°C° 1.4 mm 5 mps 678 mmHg 90%
    06:00 +22°C° 1.1 mm 5 mps 679 mmHg 89%
    07:00 +22°C° 1.1 mm 4 mps 679 mmHg 88%
    08:00 +22°C° 1.1 mm 4 mps 679 mmHg 88%
    09:00 +22°C° 0.4 mm 4 mps 679 mmHg 86%
    10:00 +23°C° 0.4 mm 4 mps 679 mmHg 85%
    11:00 +24°C° 0.4 mm 3 mps 680 mmHg 84%
    12:00 +25°C° 0.1 mm 3 mps 679 mmHg 82%
    13:00 +25°C° 0.1 mm 3 mps 678 mmHg 80%
    14:00 +26°C° 0.1 mm 3 mps 678 mmHg 78%
    15:00 +26°C° 0.1 mm 3 mps 678 mmHg 78%
    16:00 +26°C° 0.1 mm 3 mps 678 mmHg 78%
    17:00 +25°C° 0.1 mm 3 mps 678 mmHg 78%
    18:00 +25°C° 0.5 mm 3 mps 678 mmHg 79%
    19:00 +25°C° 0.5 mm 3 mps 678 mmHg 80%
    20:00 +24°C° 0.5 mm 2 mps 679 mmHg 81%
    21:00 +24°C° 0.1 mm 3 mps 679 mmHg 81%
    22:00 +24°C° 0.1 mm 3 mps 679 mmHg 82%
    23:00 +24°C° 0.1 mm 3 mps 679 mmHg 83%

    Day after tomorrow, 20 July, Saturday

    Time Temperature Precipitation Wind Pressure Humidity
    00:00 +23°C° 0 mm 4 mps 679 mmHg 85%
    01:00 +22°C° 0 mm 4 mps 678 mmHg 87%
    02:00 +22°C° 0 mm 4 mps 678 mmHg 88%
    03:00 +22°C° 0 mm 4 mps 678 mmHg 89%
    04:00 +22°C° 0 mm 4 mps 678 mmHg 89%
    05:00 +22°C° 0 mm 4 mps 678 mmHg 89%
    06:00 +22°C° 0.1 mm 4 mps 678 mmHg 88%
    07:00 +22°C° 0.1 mm 4 mps 679 mmHg 86%
    08:00 +23°C° 0.1 mm 4 mps 679 mmHg 85%
    09:00 +25°C° 0.1 mm 4 mps 680 mmHg 81%
    10:00 +25°C° 0.1 mm 5 mps 680 mmHg 77%
    11:00 +26°C° 0.1 mm 5 mps 680 mmHg 73%
    12:00 +27°C° 0.1 mm 6 mps 679 mmHg 71%
    13:00 +27°C° 0.1 mm 6 mps 679 mmHg 68%
    14:00 +28°C° 0.1 mm 7 mps 678 mmHg 65%
    15:00 +28°C° 0.1 mm 7 mps 678 mmHg 65%
    16:00 +27°C° 0.1 mm 6 mps 678 mmHg 66%
    17:00 +27°C° 0.1 mm 6 mps 678 mmHg 66%
    18:00 +26°C° 0.1 mm 6 mps 678 mmHg 70%
    19:00 +24°C° 0.1 mm 6 mps 679 mmHg 75%
    20:00 +23°C° 0.1 mm 6 mps 679 mmHg 79%
    21:00 +23°C° 0 mm 6 mps 679 mmHg 81%
    22:00 +23°C° 0 mm 6 mps 680 mmHg 82%
    23:00 +23°C° 0 mm 5 mps 680 mmHg 84%

    21 July, Sunday

    Time Temperature Precipitation Wind Pressure Humidity
    00:00 +23°C° 0 mm 5 mps 679 mmHg 84%
    01:00 +22°C° 0 mm 5 mps 678 mmHg 85%
    02:00 +22°C° 0 mm 5 mps 678 mmHg 86%
    03:00 +22°C° 0 mm 5 mps 678 mmHg 86%
    04:00 +22°C° 0 mm 5 mps 678 mmHg 86%
    05:00 +22°C° 0 mm 5 mps 678 mmHg 87%
    06:00 +23°C° 0 mm 5 mps 678 mmHg 84%
    07:00 +23°C° 0 mm 5 mps 679 mmHg 82%
    08:00 +25°C° 0 mm 5 mps 679 mmHg 80%
    09:00 +25°C° 0 mm 5 mps 679 mmHg 77%
    10:00 +26°C° 0 mm 5 mps 679 mmHg 74%
    11:00 +27°C° 0 mm 5 mps 679 mmHg 71%
    12:00 +27°C° 0.4 mm 5 mps 679 mmHg 69%
    13:00 +28°C° 0.4 mm 6 mps 678 mmHg 67%
    14:00 +29°C° 0.4 mm 6 mps 678 mmHg 65%
    15:00 +28°C° 0.6 mm 6 mps 678 mmHg 67%
    16:00 +28°C° 0.6 mm 6 mps 677 mmHg 69%
    17:00 +27°C° 0.6 mm 5 mps 677 mmHg 70%
    18:00 +26°C° 0.7 mm 5 mps 678 mmHg 74%
    19:00 +26°C° 0.7 mm 5 mps 678 mmHg 77%
    20:00 +25°C° 0.7 mm 5 mps 679 mmHg 80%
    21:00 +25°C° 0.9 mm 5 mps 679 mmHg 83%
    22:00 +23°C° 0.9 mm 5 mps 679 mmHg 86%
    23:00 +23°C° 0.9 mm 5 mps 679 mmHg 88%

    22 July, Monday

    Time Temperature Precipitation Wind Pressure Humidity
    00:00 +23°C° 0.2 mm 5 mps 678 mmHg 89%
    01:00 +23°C° 0.2 mm 4 mps 678 mmHg 89%
    02:00 +22°C° 0.2 mm 4 mps 677 mmHg 89%
    03:00 +22°C° 0 mm 4 mps 677 mmHg 90%
    04:00 +22°C° 0 mm 3 mps 677 mmHg 90%
    05:00 +22°C° 0 mm 3 mps 677 mmHg 91%
    06:00 +23°C° 0 mm 4 mps 678 mmHg 87%
    07:00 +23°C° 0 mm 4 mps 678 mmHg 84%
    08:00 +25°C° 0 mm 4 mps 679 mmHg 81%
    09:00 +26°C° 0.2 mm 4 mps 679 mmHg 78%
    10:00 +26°C° 0.2 mm 3 mps 679 mmHg 74%
    11:00 +27°C° 0.2 mm 3 mps 679 mmHg 71%
    12:00 +27°C° 1.5 mm 3 mps 678 mmHg 71%
    13:00 +27°C° 1.5 mm 3 mps 677 mmHg 71%
    14:00 +28°C° 1.5 mm 3 mps 677 mmHg 71%
    15:00 +27°C° 1.9 mm 3 mps 677 mmHg 74%
    16:00 +26°C° 1.9 mm 3 mps 677 mmHg 77%
    17:00 +25°C° 1.9 mm 3 mps 676 mmHg 80%
    18:00 +25°C° 1.7 mm 3 mps 677 mmHg 83%
    19:00 +24°C° 1.7 mm 3 mps 677 mmHg 85%
    20:00 +24°C° 1.7 mm 3 mps 678 mmHg 88%
    21:00 +24°C° 3.5 mm 3 mps 678 mmHg 90%
    22:00 +22°C° 3.5 mm 3 mps 678 mmHg 92%
    23:00 +22°C° 3.5 mm 3 mps 678 mmHg 94%

    23 July, Tuesday

    Time Temperature Precipitation Wind Pressure Humidity
    00:00 +22°C° 3.3 mm 4 mps 677 mmHg 94%
    01:00 +22°C° 3.3 mm 4 mps 677 mmHg 94%
    02:00 +22°C° 3.3 mm 4 mps 676 mmHg 94%
    03:00 +21°C° 1.5 mm 5 mps 676 mmHg 93%
    04:00 +21°C° 1.5 mm 5 mps 676 mmHg 93%
    05:00 +21°C° 1.5 mm 6 mps 676 mmHg 92%
    06:00 +21°C° 1.4 mm 7 mps 677 mmHg 92%
    07:00 +21°C° 1.4 mm 7 mps 677 mmHg 91%
    08:00 +21°C° 1.4 mm 7 mps 678 mmHg 90%
    09:00 +21°C° 0.7 mm 7 mps 678 mmHg 90%
    10:00 +21°C° 0.7 mm 7 mps 678 mmHg 90%
    11:00 +21°C° 0.7 mm 7 mps 678 mmHg 90%
    12:00 +22°C° 0.3 mm 7 mps 677 mmHg 88%
    13:00 +22°C° 0.3 mm 7 mps 677 mmHg 86%
    14:00 +23°C° 0.3 mm 7 mps 677 mmHg 85%
    15:00 +23°C° 0.1 mm 7 mps 677 mmHg 84%
    16:00 +23°C° 0.1 mm 8 mps 677 mmHg 83%
    17:00 +23°C° 0.1 mm 9 mps 677 mmHg 82%
    18:00 +23°C° 0 mm 8 mps 677 mmHg 83%
    19:00 +22°C° 0 mm 8 mps 678 mmHg 84%
    20:00 +22°C° 0 mm 8 mps 678 mmHg 85%
    21:00 +22°C° 0 mm 8 mps 678 mmHg 85%
    22:00 +22°C° 0 mm 7 mps 678 mmHg 86%
    23:00 +21°C° 0 mm 7 mps 678 mmHg 86%
    Show more